E1570 Weather Reports


time (UTC)temp
C
wind
direction
speed
KPH
gust
KPH
rain 1hr
cm
rain 24hr
cm
rain mn
cm
humidity
%
barometer
mb
20260508101555 4 72 1.6 6.4 0.00 0.00 0.00 91 1017.4
20260508100055 4 83 1.6 6.4 0.00 0.00 0.00 91 1017.2
20260508094607 4 0 0.0 1.6 0.00 0.00 0.00 91 1017.2
20260508093055 4 213 1.6 4.8 0.00 0.00 0.00 91 1017.0
20260508091556 5 200 3.2 8.0 0.00 0.00 0.00 92 1016.8
20260508090056 5 0 1.6 4.8 0.00 0.00 0.00 93 1016.6
20260508084556 5 0 0.0 1.6 0.00 0.00 0.00 92 1016.5
20260508083057 5 172 1.6 8.0 0.00 0.00 0.00 92 1016.4
20260508081615 5 215 4.8 8.0 0.00 0.00 0.00 92 1016.4
20260508080101 5 193 0.0 4.8 0.00 0.00 0.00 93 1016.3
20260508074556 5 177 0.0 0.0 0.00 0.00 0.00 93 1016.4
20260508073059 5 0 0.0 0.0 0.00 0.00 0.00 93 1016.1
20260508071602 5 0 0.0 0.0 0.00 0.00 0.00 93 1016.2
20260508070107 5 0 0.0 0.0 0.00 0.00 0.00 94 1016.2
20260508064557 5 0 0.0 0.0 0.00 0.00 0.00 93 1016.3
20260508063054 5 0 0.0 0.0 0.00 0.00 0.00 93 1016.4
20260508061556 5 0 0.0 0.0 0.00 0.00 0.00 93 1016.3
20260508060056 5 0 0.0 0.0 0.00 0.00 0.00 93 1016.4
20260508054558 5 0 0.0 0.0 0.00 0.00 0.00 93 1016.2
20260508053057 5 0 0.0 0.0 0.00 0.00 0.00 93 1016.1
20260508051551 5 0 0.0 0.0 0.00 0.00 0.00 92 1015.9
20260508050055 5 0 0.0 0.0 0.00 0.00 0.00 91 1015.7
20260508044603 6 0 0.0 0.0 0.00 0.00 0.00 91 1015.6
20260508043104 6 0 0.0 0.0 0.00 0.00 0.00 90 1015.6
20260508041555 6 0 0.0 0.0 0.00 0.00 0.00 90 1015.4
20260508040100 6 0 0.0 0.0 0.00 0.00 0.00 89 1015.3
20260508034556 7 0 0.0 0.0 0.00 0.00 0.00 89 1015.1
20260508033055 7 0 0.0 0.0 0.00 0.00 0.00 88 1015.1
20260508031552 7 0 0.0 0.0 0.00 0.00 0.00 87 1015.0
20260508030059 7 0 0.0 0.0 0.00 0.00 0.00 86 1014.8
20260508024553 7 0 0.0 0.0 0.00 0.05 0.00 85 1014.5
20260508023057 8 0 0.0 0.0 0.00 0.05 0.00 83 1014.4
20260508021556 8 0 0.0 0.0 0.00 0.05 0.00 82 1014.3
20260508020059 8 0 0.0 0.0 0.00 0.05 0.00 81 1014.0
20260508014558 8 0 0.0 0.0 0.00 0.05 0.00 79 1013.8
20260508013059 9 0 0.0 0.0 0.00 0.05 0.00 77 1013.5
20260508011607 10 0 0.0 0.0 0.00 0.05 0.00 74 1013.1
20260508010057 10 0 0.0 1.6 0.00 0.05 0.00 72 1012.9
20260508004558 11 349 0.0 1.6 0.00 0.08 0.00 68 1012.8
20260508003100 12 349 0.0 1.6 0.00 0.08 0.00 62 1012.5
20260508001557 13 0 0.0 6.4 0.00 0.08 0.00 56 1012.4
20260508000057 14 0 0.0 6.4 0.00 0.08 0.00 50 1012.3
20260507234605 15 126 1.6 8.0 0.00 0.15 0.00 51 1012.3
20260507233053 15 342 0.0 4.8 0.00 0.15 0.00 52 1012.2
20260507231557 16 136 3.2 6.4 0.00 0.15 0.00 47 1012.1
20260507230101 16 0 0.0 8.0 0.00 0.15 0.00 50 1011.8
20260507224556 16 129 3.2 12.9 0.00 0.18 0.00 48 1011.8
20260507223058 16 110 4.8 12.9 0.00 0.18 0.00 47 1011.6
20260507221603 16 89 3.2 14.5 0.00 0.18 0.00 48 1011.5
20260507220105 17 25 6.4 11.3 0.00 0.18 0.00 48 1011.3
20260507214604 17 238 1.6 11.3 0.00 0.18 0.00 49 1011.2
20260507213110 17 76 6.4 17.7 0.00 0.18 0.00 46 1011.2
20260507211557 16 148 3.2 9.7 0.00 0.18 0.00 48 1011.0
20260507210057 17 205 3.2 14.5 0.00 0.18 0.00 48 1010.8
20260507204556 17 40 9.7 24.1 0.00 0.18 0.00 47 1010.8
20260507203101 16 15 14.5 27.4 0.00 0.18 0.00 51 1011.0
20260507201601 16 300 4.8 19.3 0.00 0.18 0.00 51 1010.9
20260507200059 15 195 1.6 12.9 0.00 0.18 0.00 55 1011.4
20260507194555 15 235 1.6 11.3 0.00 0.18 0.00 56 1011.3
20260507193100 15 68 4.8 14.5 0.00 0.18 0.00 56 1011.5
20260507191558 15 223 4.8 25.7 0.00 0.18 0.00 57 1011.6
20260507190056 16 231 8.0 22.5 0.00 0.18 0.00 54 1011.6
20260507184555 15 226 12.9 20.9 0.00 0.18 0.00 53 1011.6
20260507183104 15 188 3.2 9.7 0.00 0.18 0.00 52 1011.7
20260507181600 15 205 6.4 14.5 0.00 0.18 0.00 52 1011.5
20260507180053 14 196 6.4 12.9 0.00 0.18 0.00 55 1011.9
20260507174605 14 230 8.0 14.5 0.00 0.18 0.00 55 1012.1
20260507173102 15 163 6.4 14.5 0.00 0.18 0.00 56 1011.9
20260507171611 15 53 1.6 8.0 0.00 0.18 0.00 55 1012.0
20260507170100 15 166 0.0 8.0 0.00 0.18 0.00 57 1012.4
20260507164612 14 72 3.2 9.7 0.00 0.23 0.00 61 1012.4
20260507163055 13 20 4.8 9.7 0.00 0.23 0.00 61 1012.4
20260507161603 13 111 4.8 12.9 0.00 0.23 0.00 62 1012.6
20260507160059 12 235 6.4 14.5 0.00 0.23 0.00 63 1012.6
20260507154553 12 212 4.8 14.5 0.00 0.23 0.00 64 1012.8
20260507153055 12 234 3.2 16.1 0.00 0.23 0.00 64 1012.8
20260507151553 12 212 6.4 16.1 0.00 0.23 0.00 68 1013.0
20260507150057 12 259 4.8 14.5 0.00 0.23 0.00 68 1013.2
20260507144555 11 141 6.4 16.1 0.00 0.28 0.00 70 1013.1
20260507143104 11 219 4.8 11.3 0.00 0.28 0.00 73 1013.3
20260507141555 11 184 6.4 12.9 0.00 0.28 0.00 73 1013.3
20260507140057 11 177 3.2 9.7 0.00 0.28 0.00 75 1013.5
20260507134558 11 184 4.8 11.3 0.00 0.28 0.00 76 1013.5
20260507133058 10 200 4.8 14.5 0.00 0.28 0.00 77 1013.6
20260507131602 10 0 3.2 9.7 0.00 0.28 0.00 77 1013.7
20260507130100 10 181 3.2 4.8 0.00 0.28 0.00 80 1013.7
20260507124555 10 222 1.6 8.0 0.00 0.48 0.00 80 1013.9
20260507123051 10 177 0.0 8.0 0.00 0.48 0.00 81 1013.9
20260507121553 10 272 3.2 8.0 0.00 0.48 0.00 81 1013.5
20260507120057 10 211 0.0 11.3 0.00 0.48 0.00 83 1013.7
20260507114553 10 248 4.8 9.7 0.00 0.53 0.00 82 1013.4
20260507113103 10 227 4.8 9.7 0.00 0.53 0.00 82 1013.1
20260507111559 10 105 0.0 14.5 0.00 0.53 0.00 83 1013.2
20260507110122 10 258 0.0 11.3 0.00 0.53 0.00 85 1012.9
20260507104554 10 185 0.0 1.6 0.00 0.81 0.00 88 1012.9
20260507103057 11 184 0.0 3.2 0.00 0.81 0.00 88 1012.9